• en France
  • Liste des pays
  • À 7 jours
  • Température de l'eau
  • Carte satellitaire
  • Carte météo
  • Widgets météo
  • user-avatar
    Se connecter

    Météo par heure à Lezhuevo

    Ce jour, 14 Novembre, Mercredi

    Heure Température Précipitation Vent Pression Humidité
    00:00 -3°C° 0.3 mm 6 m/s 754 mmHg 60%
    01:00 -4°C° 0.3 mm 6 m/s 754 mmHg 62%
    02:00 -4°C° 0.3 mm 6 m/s 753 mmHg 65%
    03:00 -4°C° 0.4 mm 6 m/s 753 mmHg 68%
    04:00 -4°C° 0.4 mm 6 m/s 752 mmHg 71%
    05:00 -4°C° 0.4 mm 5 m/s 751 mmHg 74%
    06:00 -5°C° 0.7 mm 5 m/s 751 mmHg 78%
    07:00 -5°C° 0.7 mm 5 m/s 751 mmHg 83%
    08:00 -5°C° 0.7 mm 5 m/s 751 mmHg 87%
    09:00 -5°C° 0.8 mm 5 m/s 751 mmHg 87%
    10:00 -5°C° 0.8 mm 5 m/s 751 mmHg 88%
    11:00 -4°C° 0.8 mm 4 m/s 751 mmHg 88%
    12:00 -4°C° 0.5 mm 4 m/s 751 mmHg 88%
    13:00 -4°C° 0.5 mm 4 m/s 751 mmHg 89%
    14:00 -4°C° 0.5 mm 3 m/s 751 mmHg 89%
    15:00 -4°C° 0.2 mm 3 m/s 751 mmHg 90%
    16:00 -3°C° 0.2 mm 2 m/s 752 mmHg 90%
    17:00 -3°C° 0.2 mm 2 m/s 752 mmHg 91%
    18:00 -1°C° 0.1 mm 1 m/s 752 mmHg 91%
    19:00 -1°C° 0.1 mm 1 m/s 752 mmHg 92%
    20:00 -1°C° 0.1 mm 1 m/s 753 mmHg 92%
    21:00 -1°C° 0 mm 1 m/s 753 mmHg 93%
    22:00 -1°C° 0 mm 1 m/s 753 mmHg 93%
    23:00 -2°C° 0 mm 1 m/s 754 mmHg 94%

    Demain, 15 Novembre, Jeudi

    Heure Température Précipitation Vent Pression Humidité
    00:00 -1°C° 0 mm 1 m/s 754 mmHg 94%
    01:00 -1°C° 0 mm 1 m/s 755 mmHg 94%
    02:00 -1°C° 0 mm 1 m/s 755 mmHg 93%
    03:00 -1°C° 0 mm 1 m/s 756 mmHg 94%
    04:00 -1°C° 0 mm 1 m/s 756 mmHg 94%
    05:00 -1°C° 0 mm 1 m/s 756 mmHg 94%
    06:00 -1°C° 0 mm 1 m/s 757 mmHg 94%
    07:00 -2°C° 0 mm 1 m/s 757 mmHg 94%
    08:00 -2°C° 0 mm 1 m/s 758 mmHg 94%
    09:00 -1°C° 0 mm 1 m/s 758 mmHg 92%
    10:00 0°C° 0 mm 1 m/s 759 mmHg 89%
    11:00 0°C° 0 mm 0 m/s 759 mmHg 87%
    12:00 0°C° 0 mm 0 m/s 759 mmHg 87%
    13:00 0°C° 0 mm 0 m/s 760 mmHg 87%
    14:00 0°C° 0 mm 0 m/s 760 mmHg 88%
    15:00 0°C° 0 mm 0 m/s 760 mmHg 90%
    16:00 0°C° 0 mm 1 m/s 761 mmHg 92%
    17:00 -1°C° 0 mm 1 m/s 761 mmHg 94%
    18:00 -1°C° 0 mm 1 m/s 761 mmHg 94%
    19:00 -2°C° 0 mm 0 m/s 762 mmHg 94%
    20:00 -2°C° 0 mm 0 m/s 762 mmHg 94%
    21:00 -2°C° 0 mm 0 m/s 762 mmHg 94%
    22:00 -2°C° 0 mm 0 m/s 763 mmHg 95%
    23:00 -2°C° 0 mm 0 m/s 763 mmHg 95%

    Après-demain, 16 Novembre, Vendredi

    Heure Température Précipitation Vent Pression Humidité
    00:00 -2°C° 0 mm 0 m/s 763 mmHg 95%
    01:00 -2°C° 0 mm 0 m/s 764 mmHg 95%
    02:00 -2°C° 0 mm 0 m/s 764 mmHg 96%
    03:00 -2°C° 0 mm 0 m/s 764 mmHg 96%
    04:00 -2°C° 0 mm 0 m/s 764 mmHg 96%
    05:00 -1°C° 0 mm 0 m/s 765 mmHg 96%
    06:00 0°C° 0 mm 1 m/s 765 mmHg 96%
    07:00 0°C° 0 mm 1 m/s 765 mmHg 96%
    08:00 0°C° 0 mm 1 m/s 766 mmHg 95%
    09:00 +1°C° 0 mm 1 m/s 766 mmHg 94%
    10:00 +2°C° 0 mm 1 m/s 766 mmHg 93%
    11:00 +2°C° 0 mm 1 m/s 766 mmHg 92%
    12:00 +2°C° 0 mm 1 m/s 766 mmHg 93%
    13:00 +3°C° 0 mm 1 m/s 766 mmHg 93%
    14:00 +3°C° 0 mm 1 m/s 766 mmHg 94%
    15:00 +2°C° 0 mm 1 m/s 766 mmHg 94%
    16:00 +1°C° 0 mm 1 m/s 766 mmHg 95%
    17:00 +1°C° 0 mm 1 m/s 767 mmHg 96%
    18:00 0°C° 0 mm 1 m/s 766 mmHg 96%
    19:00 0°C° 0 mm 1 m/s 766 mmHg 96%
    20:00 0°C° 0 mm 1 m/s 766 mmHg 96%
    21:00 0°C° 0 mm 1 m/s 766 mmHg 96%
    22:00 0°C° 0 mm 1 m/s 766 mmHg 96%
    23:00 0°C° 0 mm 1 m/s 766 mmHg 95%

    17 Novembre, Samedi

    Heure Température Précipitation Vent Pression Humidité
    00:00 -2°C° 0 mm 2 m/s 766 mmHg 95%
    01:00 -2°C° 0 mm 2 m/s 766 mmHg 95%
    02:00 -2°C° 0 mm 2 m/s 766 mmHg 95%
    03:00 -2°C° 0 mm 2 m/s 766 mmHg 95%
    04:00 -2°C° 0 mm 2 m/s 765 mmHg 95%
    05:00 -2°C° 0 mm 2 m/s 765 mmHg 95%
    06:00 -2°C° 0 mm 2 m/s 764 mmHg 94%
    07:00 -2°C° 0 mm 2 m/s 764 mmHg 94%
    08:00 -1°C° 0 mm 2 m/s 764 mmHg 94%
    09:00 -1°C° 0 mm 2 m/s 763 mmHg 94%
    10:00 0°C° 0 mm 3 m/s 763 mmHg 94%
    11:00 0°C° 0 mm 3 m/s 763 mmHg 94%
    12:00 +1°C° 0 mm 3 m/s 762 mmHg 95%
    13:00 +1°C° 0 mm 3 m/s 761 mmHg 96%
    14:00 +1°C° 0 mm 3 m/s 761 mmHg 96%
    15:00 +1°C° 0 mm 3 m/s 760 mmHg 96%
    16:00 +1°C° 0 mm 3 m/s 760 mmHg 97%
    17:00 +1°C° 0 mm 3 m/s 759 mmHg 97%
    18:00 +1°C° 0 mm 3 m/s 758 mmHg 97%
    19:00 +1°C° 0 mm 3 m/s 757 mmHg 97%
    20:00 +1°C° 0 mm 3 m/s 756 mmHg 97%
    21:00 +1°C° 0 mm 3 m/s 756 mmHg 97%
    22:00 +2°C° 0 mm 3 m/s 755 mmHg 97%
    23:00 +2°C° 0 mm 3 m/s 754 mmHg 97%

    18 Novembre, Dimanche

    Heure Température Précipitation Vent Pression Humidité
    00:00 +2°C° 0.1 mm 3 m/s 754 mmHg 97%
    01:00 +1°C° 0.1 mm 3 m/s 753 mmHg 96%
    02:00 +1°C° 0.1 mm 3 m/s 753 mmHg 96%
    03:00 +1°C° 0.1 mm 3 m/s 752 mmHg 96%
    04:00 +1°C° 0.1 mm 3 m/s 752 mmHg 95%
    05:00 +1°C° 0.1 mm 3 m/s 751 mmHg 95%
    06:00 +1°C° 0.1 mm 3 m/s 751 mmHg 94%
    07:00 +1°C° 0.1 mm 3 m/s 751 mmHg 94%
    08:00 0°C° 0.1 mm 4 m/s 750 mmHg 94%
    09:00 0°C° 0.2 mm 4 m/s 750 mmHg 93%
    10:00 +1°C° 0.2 mm 4 m/s 750 mmHg 92%
    11:00 +1°C° 0.2 mm 4 m/s 750 mmHg 91%
    12:00 +1°C° 0.3 mm 4 m/s 750 mmHg 91%
    13:00 +1°C° 0.3 mm 4 m/s 750 mmHg 90%
    14:00 +1°C° 0.3 mm 4 m/s 750 mmHg 90%
    15:00 +1°C° 0.1 mm 4 m/s 750 mmHg 90%
    16:00 +1°C° 0.1 mm 4 m/s 750 mmHg 90%
    17:00 +1°C° 0.1 mm 4 m/s 750 mmHg 89%
    18:00 +1°C° 0.2 mm 4 m/s 750 mmHg 89%
    19:00 +1°C° 0.2 mm 4 m/s 750 mmHg 88%
    20:00 0°C° 0.2 mm 4 m/s 751 mmHg 88%
    21:00 0°C° 0.1 mm 4 m/s 751 mmHg 88%
    22:00 0°C° 0.1 mm 4 m/s 751 mmHg 88%
    23:00 0°C° 0.1 mm 4 m/s 752 mmHg 88%

    19 Novembre, Lundi

    Heure Température Précipitation Vent Pression Humidité
    00:00 0°C° 0.1 mm 4 m/s 752 mmHg 88%
    01:00 0°C° 0.1 mm 4 m/s 752 mmHg 88%
    02:00 0°C° 0.1 mm 4 m/s 752 mmHg 88%
    03:00 0°C° 0.1 mm 4 m/s 753 mmHg 88%
    04:00 0°C° 0.1 mm 4 m/s 753 mmHg 87%
    05:00 0°C° 0.1 mm 5 m/s 753 mmHg 87%
    06:00 0°C° 0.1 mm 5 m/s 753 mmHg 86%
    07:00 0°C° 0.1 mm 5 m/s 754 mmHg 86%
    08:00 -1°C° 0.1 mm 5 m/s 754 mmHg 85%
    09:00 0°C° 0.1 mm 5 m/s 755 mmHg 84%
    10:00 0°C° 0.1 mm 5 m/s 756 mmHg 84%
    11:00 0°C° 0.1 mm 5 m/s 756 mmHg 83%
    12:00 0°C° 0 mm 5 m/s 757 mmHg 82%
    13:00 0°C° 0 mm 5 m/s 757 mmHg 81%
    14:00 0°C° 0 mm 5 m/s 758 mmHg 81%
    15:00 -1°C° 0 mm 4 m/s 758 mmHg 80%
    16:00 -2°C° 0 mm 4 m/s 759 mmHg 79%
    17:00 -3°C° 0 mm 4 m/s 760 mmHg 78%
    18:00 -3°C° 0 mm 4 m/s 760 mmHg 79%
    19:00 -4°C° 0 mm 4 m/s 760 mmHg 79%
    20:00 -4°C° 0 mm 4 m/s 761 mmHg 79%
    21:00 -4°C° 0 mm 4 m/s 761 mmHg 79%
    22:00 -4°C° 0 mm 3 m/s 762 mmHg 79%
    23:00 -4°C° 0 mm 3 m/s 762 mmHg 79%
    Voir plus